Time,TemperatureF,DewpointF,PressureIn,WindDirection,WindDirectionDegrees,WindSpeedMPH,WindSpeedGustMPH,Humidity,HourlyPrecipIn,Conditions,Clouds,dailyrainin,SoftwareType,DateUTC
2013-02-19 00:01:00,30.0,18.0,-100.00,SE,131,6.0,8.0,62,0.00,,,-99.99,,2013-02-19 05:01:00,
2013-02-19 00:12:00,30.0,17.0,-100.00,SE,136,4.0,7.0,57,0.00,,,-99.99,,2013-02-19 05:12:00,
2013-02-19 00:22:00,31.0,15.0,-100.00,East,79,4.0,7.0,52,0.00,,,-99.99,,2013-02-19 05:22:00,
2013-02-19 00:32:00,31.0,15.0,-100.00,East,79,4.0,7.0,52,0.00,,,-99.99,,2013-02-19 05:32:00,
2013-02-19 00:42:00,31.0,16.0,-100.00,East,83,3.0,5.0,54,0.00,,,-99.99,,2013-02-19 05:42:00,
2013-02-19 00:52:00,31.0,16.0,-100.00,East,83,3.0,5.0,54,0.00,,,-99.99,,2013-02-19 05:52:00,
2013-02-19 01:02:00,31.0,16.0,-100.00,East,83,3.0,5.0,54,0.00,,,-99.99,,2013-02-19 06:02:00,
2013-02-19 01:11:00,29.0,18.0,-100.00,NNE,23,1.0,2.0,63,0.00,,,-99.99,,2013-02-19 06:11:00,
2013-02-19 01:21:00,29.0,18.0,-100.00,NE,45,6.0,8.0,63,0.00,,,-99.99,,2013-02-19 06:21:00,
2013-02-19 01:32:00,29.0,18.0,-100.00,NE,45,6.0,8.0,63,0.00,,,-99.99,,2013-02-19 06:32:00,
2013-02-19 01:42:00,29.0,17.0,-100.00,ENE,72,5.0,7.0,62,0.00,,,-99.99,,2013-02-19 06:42:00,
2013-02-19 01:52:00,30.0,16.0,-100.00,East,85,4.0,8.0,55,0.00,,,-99.99,,2013-02-19 06:52:00,
2013-02-19 02:01:00,30.0,16.0,-100.00,East,85,4.0,8.0,55,0.00,,,-99.99,,2013-02-19 07:01:00,
2013-02-19 02:11:00,27.0,18.0,-100.00,ENE,64,5.0,7.0,68,0.00,,,-99.99,,2013-02-19 07:11:00,
2013-02-19 02:21:00,26.0,18.0,-100.00,East,82,3.0,4.0,73,0.00,,,-99.99,,2013-02-19 07:21:00,
2013-02-19 02:32:00,26.0,18.0,-100.00,East,82,3.0,4.0,73,0.00,,,-99.99,,2013-02-19 07:32:00,
2013-02-19 02:42:00,26.0,20.0,-100.00,North,1,3.0,4.0,75,0.00,,,-99.99,,2013-02-19 07:42:00,
2013-02-19 02:52:00,26.0,20.0,-100.00,NNE,32,2.0,3.0,79,0.00,,,-99.99,,2013-02-19 07:52:00,
2013-02-19 03:01:00,26.0,20.0,-100.00,NNE,32,2.0,3.0,79,0.00,,,-99.99,,2013-02-19 08:01:00,
2013-02-19 03:11:00,26.0,20.0,-100.00,NNE,25,6.0,7.0,78,0.00,,,-99.99,,2013-02-19 08:11:00,
2013-02-19 03:21:00,26.0,21.0,-100.00,ENE,59,2.0,5.0,81,0.00,,,-99.99,,2013-02-19 08:21:00,
2013-02-19 03:31:00,26.0,21.0,-100.00,ENE,59,2.0,5.0,81,0.00,,,-99.99,,2013-02-19 08:31:00,
2013-02-19 03:42:00,27.0,20.0,-100.00,North,8,4.0,7.0,76,0.00,,,-99.99,,2013-02-19 08:42:00,
2013-02-19 03:52:00,25.0,19.0,-100.00,NNE,32,2.0,3.0,78,0.00,,,-99.99,,2013-02-19 08:52:00,
2013-02-19 04:01:00,25.0,19.0,-100.00,NNE,32,2.0,3.0,78,0.00,,,-99.99,,2013-02-19 09:01:00,
2013-02-19 04:11:00,25.0,20.0,-100.00,NNW,336,2.0,4.0,79,0.00,,,-99.99,,2013-02-19 09:11:00,
2013-02-19 04:21:00,25.0,20.0,-100.00,SSW,208,1.0,2.0,80,0.00,,,-99.99,,2013-02-19 09:21:00,
2013-02-19 04:31:00,25.0,20.0,-100.00,SSW,208,1.0,2.0,80,0.00,,,-99.99,,2013-02-19 09:31:00,
2013-02-19 04:41:00,25.0,20.0,-100.00,SSE,154,1.0,2.0,82,0.00,,,-99.99,,2013-02-19 09:41:00,
2013-02-19 04:53:00,25.0,20.0,-100.00,NW,312,0.0,2.0,84,0.00,,,-99.99,,2013-02-19 09:53:00,
2013-02-19 05:01:00,25.0,20.0,-100.00,NW,312,0.0,2.0,84,0.00,,,-99.99,,2013-02-19 10:01:00,
2013-02-19 05:11:00,25.0,21.0,-100.00,NNE,31,5.0,5.0,83,0.00,,,-99.99,,2013-02-19 10:11:00,
2013-02-19 05:21:00,24.0,20.0,-100.00,NNE,13,4.0,4.0,87,0.00,,,-99.99,,2013-02-19 10:21:00,
2013-02-19 05:31:00,24.0,20.0,-100.00,NNE,13,4.0,4.0,87,0.00,,,-99.99,,2013-02-19 10:31:00,
2013-02-19 05:41:00,24.0,21.0,-100.00,NNE,13,6.0,8.0,88,0.00,,,-99.99,,2013-02-19 10:41:00,
2013-02-19 05:52:00,24.0,21.0,-100.00,North,8,4.0,6.0,87,0.00,,,-99.99,,2013-02-19 10:52:00,
2013-02-19 06:01:00,24.0,21.0,-100.00,North,8,4.0,6.0,87,0.00,,,-99.99,,2013-02-19 11:01:00,
2013-02-19 06:11:00,25.0,21.0,-100.00,SSW,196,2.0,3.0,83,0.00,,,-99.99,,2013-02-19 11:11:00,
2013-02-19 06:21:00,25.0,21.0,-100.00,NW,320,2.0,3.0,83,0.00,,,-99.99,,2013-02-19 11:21:00,
2013-02-19 06:31:00,25.0,21.0,-100.00,NW,320,2.0,3.0,83,0.00,,,-99.99,,2013-02-19 11:31:00,
2013-02-19 06:42:00,25.0,21.0,-100.00,East,80,1.0,2.0,85,0.00,,,-99.99,,2013-02-19 11:42:00,
2013-02-19 06:52:00,25.0,21.0,-100.00,NW,322,4.0,5.0,86,0.00,,,-99.99,,2013-02-19 11:52:00,
2013-02-19 07:01:00,25.0,21.0,-100.00,NW,322,4.0,5.0,86,0.00,,,-99.99,,2013-02-19 12:01:00,
2013-02-19 07:12:00,25.0,21.0,-100.00,North,354,3.0,6.0,87,0.00,,,-99.99,,2013-02-19 12:12:00,
2013-02-19 07:21:00,28.0,21.0,-100.00,NW,326,6.0,9.0,75,0.00,,,-99.99,,2013-02-19 12:21:00,
2013-02-19 07:32:00,28.0,21.0,-100.00,NW,326,6.0,9.0,75,0.00,,,-99.99,,2013-02-19 12:32:00,
2013-02-19 07:42:00,28.0,21.0,-100.00,NW,326,6.0,9.0,75,0.00,,,-99.99,,2013-02-19 12:42:00,
2013-02-19 07:52:00,26.0,21.0,-100.00,NNW,330,11.0,15.0,82,0.00,,,-99.99,,2013-02-19 12:52:00,
2013-02-19 08:01:00,26.0,21.0,-100.00,NNW,330,11.0,15.0,82,0.00,,,-99.99,,2013-02-19 13:01:00,
2013-02-19 08:11:00,26.0,22.0,-100.00,NNW,340,3.0,6.0,84,0.00,,,-99.99,,2013-02-19 13:11:00,
2013-02-19 08:22:00,26.0,22.0,-100.00,NNW,344,5.0,8.0,84,0.00,,,-99.99,,2013-02-19 13:22:00,
2013-02-19 08:31:00,26.0,22.0,-100.00,NNW,344,5.0,8.0,84,0.00,,,-99.99,,2013-02-19 13:31:00,
2013-02-19 08:41:00,27.0,23.0,-100.00,North,360,4.0,5.0,85,0.00,,,-99.99,,2013-02-19 13:41:00,
2013-02-19 08:52:00,26.0,22.0,-100.00,North,349,7.0,9.0,84,0.00,,,-99.99,,2013-02-19 13:52:00,
2013-02-19 09:01:00,26.0,22.0,-100.00,North,349,7.0,9.0,84,0.00,,,-99.99,,2013-02-19 14:01:00,
2013-02-19 09:11:00,26.0,22.0,-100.00,NNW,343,8.0,11.0,84,0.00,,,-99.99,,2013-02-19 14:11:00,
2013-02-19 09:21:00,26.0,22.0,-100.00,North,4,7.0,9.0,84,0.00,,,-99.99,,2013-02-19 14:21:00,
2013-02-19 09:30:00,26.0,21.0,-100.00,NNW,339,6.0,8.0,81,0.00,,,-99.99,,2013-02-19 14:30:00,
2013-02-19 09:32:00,26.0,22.0,-100.00,North,4,7.0,9.0,84,0.00,,,-99.99,,2013-02-19 14:32:00,
2013-02-19 09:41:00,26.0,22.0,-100.00,North,354,6.0,8.0,83,0.00,,,-99.99,,2013-02-19 14:41:00,
2013-02-19 09:52:00,26.0,21.0,-100.00,NNW,339,6.0,8.0,81,0.00,,,-99.99,,2013-02-19 14:52:00,
2013-02-19 10:01:00,26.0,21.0,-100.00,NNW,339,6.0,8.0,81,0.00,,,-99.99,,2013-02-19 15:01:00,
2013-02-19 10:11:00,26.0,21.0,-100.00,NNW,339,6.0,8.0,81,0.00,,,-99.99,,2013-02-19 15:11:00,
2013-02-19 10:21:00,26.0,21.0,-100.00,NNW,339,6.0,8.0,81,0.00,,,-99.99,,2013-02-19 15:21:00,
2013-02-19 18:52:00,45.0,26.0,-100.00,SSE,152,10.0,14.0,49,0.00,,,-99.99,,2013-02-19 23:52:00,
2013-02-19 19:01:00,45.0,26.0,-100.00,SSE,152,10.0,14.0,49,0.00,,,-99.99,,2013-02-20 00:01:00,
2013-02-19 19:11:00,44.0,27.0,-100.00,SSE,152,10.0,12.0,51,0.00,,,-99.99,,2013-02-20 00:11:00,
2013-02-19 19:21:00,43.0,28.0,-100.00,SSE,160,7.0,10.0,55,0.00,,,-99.99,,2013-02-20 00:21:00,
2013-02-19 19:31:00,43.0,28.0,-100.00,SSE,160,7.0,10.0,55,0.00,,,-99.99,,2013-02-20 00:31:00,
2013-02-19 19:41:00,42.0,27.0,-100.00,SSE,151,4.0,7.0,54,0.00,,,-99.99,,2013-02-20 00:41:00,
2013-02-19 19:52:00,41.0,28.0,-100.00,West,265,3.0,5.0,58,0.00,,,-99.99,,2013-02-20 00:52:00,
2013-02-19 20:02:00,41.0,28.0,-100.00,West,265,3.0,5.0,58,0.00,,,-99.99,,2013-02-20 01:02:00,
2013-02-19 20:11:00,41.0,27.0,-100.00,WNW,292,2.0,4.0,59,0.00,,,-99.99,,2013-02-20 01:11:00,
2013-02-19 20:21:00,40.0,27.0,-100.00,North,0,2.0,2.0,61,0.00,,,-99.99,,2013-02-20 01:21:00,
2013-02-19 20:31:00,40.0,27.0,-100.00,North,0,2.0,2.0,61,0.00,,,-99.99,,2013-02-20 01:31:00,
2013-02-19 20:41:00,40.0,27.0,-100.00,NNE,30,2.0,3.0,60,0.00,,,-99.99,,2013-02-20 01:41:00,
2013-02-19 20:52:00,37.0,27.0,-100.00,North,4,3.0,5.0,68,0.00,,,-99.99,,2013-02-20 01:52:00,
2013-02-19 21:01:00,37.0,27.0,-100.00,North,4,3.0,5.0,68,0.00,,,-99.99,,2013-02-20 02:01:00,
2013-02-19 21:11:00,37.0,27.0,-100.00,NE,38,2.0,3.0,68,0.00,,,-99.99,,2013-02-20 02:11:00,
2013-02-19 21:21:00,35.0,30.0,-100.00,North,349,9.0,11.0,82,0.00,,,-99.99,,2013-02-20 02:21:00,
2013-02-19 21:31:00,35.0,30.0,-100.00,North,349,9.0,11.0,82,0.00,,,-99.99,,2013-02-20 02:31:00,
2013-02-19 21:41:00,34.0,31.0,-100.00,North,357,9.0,11.0,87,0.00,,,-99.99,,2013-02-20 02:41:00,
2013-02-19 21:52:00,34.0,30.0,-100.00,North,11,9.0,12.0,85,0.00,,,-99.99,,2013-02-20 02:52:00,
2013-02-19 22:01:00,34.0,30.0,-100.00,North,11,9.0,12.0,85,0.00,,,-99.99,,2013-02-20 03:01:00,
2013-02-19 22:12:00,34.0,29.0,-100.00,NNE,13,11.0,13.0,83,0.00,,,-99.99,,2013-02-20 03:12:00,
2013-02-19 22:21:00,34.0,29.0,-100.00,North,6,9.0,12.0,83,0.00,,,-99.99,,2013-02-20 03:21:00,
2013-02-19 22:32:00,34.0,29.0,-100.00,North,6,9.0,12.0,83,0.00,,,-99.99,,2013-02-20 03:32:00,
2013-02-19 22:41:00,34.0,30.0,-100.00,NNE,32,8.0,9.0,84,0.00,,,-99.99,,2013-02-20 03:41:00,
2013-02-19 22:52:00,34.0,30.0,-100.00,NNE,30,11.0,13.0,86,0.00,,,-99.99,,2013-02-20 03:52:00,
2013-02-19 23:01:00,34.0,30.0,-100.00,NNE,30,11.0,13.0,86,0.00,,,-99.99,,2013-02-20 04:01:00,
2013-02-19 23:11:00,33.0,30.0,-100.00,North,11,6.0,8.0,88,0.00,,,-99.99,,2013-02-20 04:11:00,
2013-02-19 23:21:00,33.0,30.0,-100.00,North,10,8.0,11.0,89,0.00,,,-99.99,,2013-02-20 04:21:00,
2013-02-19 23:31:00,33.0,30.0,-100.00,North,10,8.0,11.0,89,0.00,,,-99.99,,2013-02-20 04:31:00,
2013-02-19 23:41:00,33.0,30.0,-100.00,NNE,18,9.0,11.0,90,0.00,,,-99.99,,2013-02-20 04:41:00,
2013-02-19 23:52:00,32.0,30.0,-100.00,NNE,16,8.0,9.0,91,0.00,,,-99.99,,2013-02-20 04:52:00,